Delta, CO

6:05 AM MDT on September 30, 2016 (GMT -0600)
Delta

Weather History for KAJZ - April, 2013

Change the Weather History Date:

Sunday, April 28, 2013

  Actual Average (KMTJ) Record (KMTJ)
Temperature  
Mean Temperature 60 °F 52 °F  
Max Temperature 80 °F 67 °F 81 °F (2007)
Min Temperature 40 °F 38 °F 28 °F (2011)
Degree Days  
Heating Degree Days 5 13  
Month to date heating degree days 458  
Since 1 July heating degree days 5914  
Cooling Degree Days 0 0  
Month to date cooling degree days 0  
Year to date cooling degree days 0  
Growing Degree Days 10 (Base 50)    
Moisture  
Dew Point 19 °F    
Average Humidity 23    
Maximum Humidity 46    
Minimum Humidity 9    
Precipitation  
Precipitation 0.00 in 0.02 in 0.10 in (1999)
Month to date precipitation 0.90  
Year to date precipitation 3.15  
Sea Level Pressure  
Sea Level Pressure 30.06 in    
Wind  
Wind Speed 4 mph (East)    
Max Wind Speed 14 mph    
Max Gust Speed 21 mph    
Visibility 10 miles    
Events      
T = Trace of Precipitation, MM = Missing Value Source: NWS Daily Summary

Daily Weather History Graph

Daily Weather History Graph

Search for Another Location

Airport or City:

Trip Planner

Search our weather history database for the weather conditions in past years. The results will help you decide how hot, cold, wet, or windy it might be!

Date:

Astronomy

Apr. 28, 2013 Rise Set
Actual Time 6:17 AM MDT 8:02 PM MDT
Civil Twilight 5:49 AM MDT 8:30 PM MDT
Nautical Twilight 5:15 AM MDT 9:05 PM MDT
Astronomical Twilight 4:38 AM MDT 9:42 PM MDT
Moon 11:34 PM MDT (4/28) 8:38 AM MDT (4/28)
Length of Visible Light 14h 41m
Length of Day
13h 44m
Waning Gibbous, 88% of the Moon is Illuminated
Apr 28
Waning Gibbous
May 2
Last Quarter
May 9
New
May 17
First Quarter
May 24
Full

Hourly Weather History & Observations

Time (MDT) Temp. Windchill Dew Point Humidity Pressure Visibility Wind Dir Wind Speed Gust Speed Precip Events Conditions
12:15 AM 51.3 °F - 19.0 °F 28% 30.16 in 10.0 mi East 3.5 mph - N/A   Clear
12:35 AM 50.2 °F - 21.0 °F 32% 30.16 in 10.0 mi NE 4.6 mph - N/A   Clear
12:55 AM 48.0 °F - 23.2 °F 38% 30.16 in 10.0 mi ENE 5.8 mph - N/A   Clear
1:15 AM 48.9 °F - 19.4 °F 31% 30.16 in 10.0 mi East 3.5 mph - N/A   Clear
1:35 AM 49.3 °F - 19.8 °F 31% 30.16 in 10.0 mi East 3.5 mph - N/A   Clear
1:55 AM 49.3 °F - 18.5 °F 30% 30.16 in 10.0 mi Calm Calm - N/A   Clear
2:15 AM 48.2 °F - 18.5 °F 31% 30.16 in 10.0 mi Calm Calm - N/A   Clear
2:35 AM 45.5 °F - 18.1 °F 34% 30.15 in 10.0 mi Calm Calm - N/A   Clear
2:55 AM 46.4 °F - 19.8 °F 35% 30.15 in 10.0 mi Calm Calm - N/A   Clear
3:15 AM 46.6 °F - 20.3 °F 35% 30.15 in 10.0 mi Calm Calm - N/A   Clear
3:35 AM 46.8 °F - 18.9 °F 33% 30.16 in 10.0 mi ENE 4.6 mph - N/A   Clear
3:55 AM 45.3 °F 44.0 °F 18.9 °F 35% 30.16 in 10.0 mi ENE 3.5 mph - N/A   Clear
4:15 AM 42.4 °F - 21.2 °F 43% 30.16 in 10.0 mi Calm Calm - N/A   Clear
4:35 AM 43.7 °F 42.1 °F 20.3 °F 39% 30.15 in 10.0 mi East 3.5 mph - N/A   Clear
4:55 AM 40.8 °F 36.9 °F 19.0 °F 42% 30.15 in 10.0 mi ENE 5.8 mph - N/A   Clear
5:15 AM 42.3 °F 37.3 °F 19.8 °F 41% 30.15 in 10.0 mi ENE 8.1 mph - N/A   Clear
5:35 AM 43.5 °F 38.3 °F 19.4 °F 38% 30.15 in 10.0 mi NE 9.2 mph - N/A   Clear
5:55 AM 41.2 °F 36.6 °F 20.7 °F 44% 30.15 in 10.0 mi NNE 6.9 mph - N/A   Clear
6:15 AM 43.0 °F - 20.8 °F 41% 30.16 in 10.0 mi Calm Calm - N/A   Clear
6:35 AM 41.2 °F - 21.2 °F 45% 30.16 in 10.0 mi Calm Calm - N/A   Clear
7:15 AM 41.4 °F - 21.9 °F 46% 30.16 in 10.0 mi Calm Calm - N/A   Clear
7:35 AM 43.5 °F - 19.4 °F 38% 30.17 in 10.0 mi Calm Calm - N/A   Clear
7:55 AM 45.9 °F - 19.8 °F 35% 30.17 in 10.0 mi Calm Calm - N/A   Clear
8:15 AM 48.0 °F - 21.7 °F 36% 30.17 in 10.0 mi Calm Calm - N/A   Clear
8:35 AM 50.2 °F - 22.3 °F 34% 30.17 in 10.0 mi ENE 5.8 mph - N/A   Clear
8:55 AM 53.4 °F - 22.6 °F 30% 30.16 in 10.0 mi East 3.5 mph - N/A   Clear
9:15 AM 54.5 °F - 23.0 °F 29% 30.16 in 10.0 mi Calm Calm - N/A   Clear
9:35 AM 57.0 °F - 23.0 °F 27% 30.15 in 10.0 mi Calm Calm - N/A   Clear
9:55 AM 58.3 °F - 20.1 °F 23% 30.14 in 10.0 mi Calm Calm - N/A   Clear
10:15 AM 59.7 °F - 20.8 °F 22% 30.14 in 10.0 mi Calm Calm - N/A   Clear
10:35 AM 61.9 °F - 21.0 °F 21% 30.13 in 10.0 mi South 3.5 mph - N/A   Clear
10:55 AM 63.3 °F - 18.7 °F 18% 30.13 in 10.0 mi SSW 3.5 mph - N/A   Clear
11:15 AM 65.1 °F - 17.8 °F 16% 30.12 in 10.0 mi Calm Calm - N/A   Clear
11:35 AM 67.3 °F - 16.2 °F 14% 30.11 in 10.0 mi SSE 4.6 mph - N/A   Clear
11:55 AM 68.7 °F - 16.5 °F 14% 30.10 in 10.0 mi Calm Calm - N/A   Clear
12:15 PM 70.2 °F - 17.4 °F 13% 30.09 in 10.0 mi South 4.6 mph - N/A   Clear
12:35 PM 72.1 °F - 15.4 °F 12% 30.08 in 10.0 mi Calm Calm - N/A   Clear
12:55 PM 73.4 °F - 16.7 °F 12% 30.07 in 10.0 mi SSW 6.9 mph - N/A   Clear
1:15 PM 74.8 °F - 15.6 °F 11% 30.06 in 10.0 mi WSW 8.1 mph - N/A   Clear
1:35 PM 75.6 °F - 15.6 °F 10% 30.05 in 10.0 mi SW 5.8 mph - N/A   Clear
1:55 PM 77.5 °F - 15.4 °F 10% 30.04 in 10.0 mi South 6.9 mph - N/A   Clear
2:15 PM 77.5 °F - 15.4 °F 10% 30.03 in 10.0 mi SSE 5.8 mph 9.2 mph N/A   Clear
2:35 PM 78.3 °F - 14.7 °F 9% 30.02 in 10.0 mi SSW 6.9 mph - N/A   Clear
2:55 PM 79.2 °F - 16.3 °F 9% 30.01 in 10.0 mi South 9.2 mph 16.1 mph N/A   Clear
3:15 PM 79.3 °F - 16.9 °F 10% 30.00 in 10.0 mi West 12.7 mph 20.7 mph N/A   Clear
3:35 PM 79.7 °F - 17.6 °F 10% 29.98 in 10.0 mi WSW 4.6 mph - N/A   Clear
3:55 PM 79.5 °F - 17.8 °F 10% 29.97 in 10.0 mi SW 12.7 mph - N/A   Clear
4:15 PM 79.9 °F - 18.7 °F 10% 29.97 in 10.0 mi West 12.7 mph 18.4 mph N/A   Clear
4:35 PM 80.4 °F - 18.9 °F 10% 29.96 in 10.0 mi NNW 5.8 mph - N/A   Clear
4:55 PM 80.6 °F - 19.0 °F 10% 29.95 in 10.0 mi WNW 10.4 mph 18.4 mph N/A   Clear
5:15 PM 79.9 °F - 18.9 °F 10% 29.94 in 10.0 mi NW 5.8 mph - N/A   Clear
5:35 PM 79.9 °F - 18.5 °F 10% 29.94 in 10.0 mi West 5.8 mph - N/A   Clear
5:55 PM 80.1 °F - 17.6 °F 10% 29.93 in 10.0 mi NW 13.8 mph 17.3 mph N/A   Clear
6:35 PM 79.7 °F - 17.8 °F 10% 29.93 in 10.0 mi WNW 11.5 mph - N/A   Clear
6:55 PM 78.8 °F - 18.1 °F 10% 29.93 in 10.0 mi West 9.2 mph 17.3 mph N/A   Clear
7:15 PM 77.9 °F - 18.0 °F 11% 29.93 in 10.0 mi WNW 10.4 mph - N/A   Clear
7:35 PM 76.1 °F - 17.6 °F 11% 29.93 in 10.0 mi NW 8.1 mph - N/A   Clear
7:55 PM 75.0 °F - 17.6 °F 11% 29.93 in 10.0 mi NNW 6.9 mph - N/A   Clear
8:15 PM 70.0 °F - 19.2 °F 15% 29.93 in 10.0 mi NNW 4.6 mph - N/A   Clear
8:35 PM 71.1 °F - 17.1 °F 13% 29.94 in 10.0 mi WNW 5.8 mph - N/A   Clear
8:55 PM 70.5 °F - 16.0 °F 12% 29.94 in 10.0 mi West 4.6 mph - N/A   Clear
9:15 PM 69.6 °F - 16.0 °F 13% 29.94 in 10.0 mi SSW 3.5 mph - N/A   Clear
9:35 PM 65.3 °F - 20.3 °F 18% 29.95 in 10.0 mi ESE 4.6 mph - N/A   Clear
9:55 PM 63.9 °F - 20.7 °F 19% 29.95 in 10.0 mi East 3.5 mph - N/A   Clear
10:15 PM 62.2 °F - 22.6 °F 22% 29.96 in 10.0 mi SE 3.5 mph - N/A   Clear
10:35 PM 60.8 °F - 23.5 °F 24% 29.95 in 10.0 mi ENE 5.8 mph - N/A   Clear
10:55 PM 59.2 °F - 27.1 °F 29% 29.95 in 10.0 mi ENE 5.8 mph - N/A   Clear
11:15 PM 60.8 °F - 22.6 °F 23% 29.95 in 10.0 mi East 5.8 mph - N/A   Clear
11:35 PM 59.2 °F - 23.0 °F 25% 29.96 in 10.0 mi East 6.9 mph - N/A   Clear
11:55 PM 57.7 °F - 25.3 °F 29% 29.96 in 10.0 mi ENE 4.6 mph - N/A   Clear